Date String (YYYY-MM-DD hh:mm:ss) UTC,Instrument flags,Ambient pressure (hPa),Sample flow (lpm),Bypass flow (lpm),Sample temperature (°C),Ambient temperature (°C),ASC tube jacket temperature (°C),LED temperature (°C),Box temperature (°C),Sample RH (%),Span deviation,Mass concentration (μg/m³),Mass concentration (μg/m³),Mass concentration (μg/m³)
DateTimeUTC,F1_M11,P_M11,Q1_M11,Q2_M11,T1_M11,T2_M11,T3_M11,T4_M11,T5_M11,U1_M11,ZSPAN_M11,X2_M11,X0_M11,X1_M11
2023-04-30 06:00:00,,0832.0,5.01,0.00,29.5,27.9,00.0,37.9,30.9,14.9,0000.0,0005.12,0017.44,0003.23
2023-04-30 06:01:00,,0832.0,5.01,0.00,29.5,27.9,00.0,37.9,31.0,14.8,0000.0,0005.11,0017.89,0003.23
2023-04-30 06:02:00,,0832.0,4.99,0.00,29.4,27.9,00.0,37.9,31.0,14.9,0000.0,0005.14,0017.17,0003.23
2023-04-30 06:03:00,,0832.0,5.00,0.00,29.5,27.9,00.0,37.9,31.0,15.0,0000.0,0005.16,0016.60,0003.24
2023-04-30 06:04:00,,0832.0,5.01,0.00,29.5,27.9,00.0,37.9,31.0,15.0,0000.0,0005.19,0016.58,0003.26
2023-04-30 06:05:00,,0832.1,5.00,0.00,29.5,27.9,00.0,37.9,31.0,15.0,0000.0,0005.28,0016.15,0003.33
2023-04-30 06:06:00,,0832.1,4.99,0.00,29.5,27.9,00.0,37.9,31.0,14.8,0000.0,0005.35,0016.41,0003.38
2023-04-30 06:07:00,,0832.1,5.00,0.00,29.5,27.9,00.0,37.9,31.0,14.9,0000.0,0005.48,0016.80,0003.44
2023-04-30 06:08:00,,0832.0,4.99,0.00,29.5,27.9,00.0,37.9,31.0,15.0,0000.0,0005.48,0016.51,0003.49
2023-04-30 06:09:00,,0832.1,4.98,0.00,29.5,27.9,00.0,37.9,31.0,14.9,0000.0,0005.50,0016.45,0003.52
2023-04-30 06:10:00,,0832.0,5.00,0.00,29.5,27.9,00.0,37.9,31.0,14.9,0000.0,0005.56,0016.75,0003.57
2023-04-30 06:11:00,,0832.0,5.00,0.00,29.5,27.9,00.0,37.9,30.9,14.8,0000.0,0005.65,0016.72,0003.62
2023-04-30 06:12:00,,0832.0,4.99,0.00,29.5,27.9,00.0,37.9,30.9,14.8,0000.0,0005.72,0016.30,0003.65
2023-04-30 06:13:00,,0832.0,5.00,0.00,29.5,27.9,00.0,37.9,30.9,14.5,0000.0,0005.73,0016.45,0003.67
2023-04-30 06:14:00,,0832.0,5.01,0.00,29.4,27.9,00.0,37.9,30.9,14.5,0000.0,0005.72,0016.46,0003.66
2023-04-30 06:15:00,,0832.0,5.00,0.00,29.4,27.9,00.0,37.9,31.0,14.6,0000.0,0005.78,0016.31,0003.67
2023-04-30 06:16:00,,0832.1,5.00,0.00,29.4,27.9,00.0,37.9,30.9,14.6,0000.0,0005.83,0016.92,0003.65
2023-04-30 06:17:00,,0832.1,4.99,0.00,29.4,27.9,00.0,37.9,31.0,14.8,0000.0,0005.79,0017.08,0003.63
2023-04-30 06:18:00,,0832.1,5.00,0.00,29.5,27.9,00.0,37.9,30.9,14.4,0000.0,0005.74,0017.57,0003.59
2023-04-30 06:19:00,,0832.2,5.00,0.00,29.5,27.9,00.0,37.9,30.9,14.5,0000.0,0005.70,0017.32,0003.56
2023-04-30 06:20:00,,0832.2,5.00,0.00,29.5,27.9,00.0,37.9,31.0,14.2,0000.0,0005.66,0016.34,0003.52
2023-04-30 06:21:00,,0832.2,5.01,0.00,29.5,27.9,00.0,37.9,31.0,14.3,0000.0,0005.64,0016.90,0003.48
2023-04-30 06:22:00,,0832.2,5.01,0.00,29.5,27.9,00.0,37.9,31.0,14.5,0000.0,0005.56,0017.21,0003.44
2023-04-30 06:23:00,,0832.1,4.99,0.00,29.5,27.9,00.0,37.9,31.0,14.2,0000.0,0005.55,0017.62,0003.42
2023-04-30 06:24:00,,0832.2,5.00,0.00,29.5,27.9,00.0,37.9,31.0,14.1,0000.0,0005.50,0018.71,0003.39
2023-04-30 06:25:00,,0832.2,5.00,0.00,29.5,27.9,00.0,37.9,31.0,14.1,0000.0,0005.47,0019.43,0003.37
2023-04-30 06:26:00,,0832.2,5.00,0.00,29.5,27.9,00.0,37.9,31.0,14.1,0000.0,0005.52,0020.87,0003.34
2023-04-30 06:27:00,,0832.3,5.00,0.00,29.5,27.9,00.0,37.9,31.0,14.1,0000.0,0005.50,0020.92,0003.32
2023-04-30 06:28:00,,0832.3,5.00,0.00,29.5,27.9,00.0,37.9,31.0,14.0,0000.0,0005.44,0020.67,0003.29
2023-04-30 06:29:00,,0832.3,5.00,0.00,29.5,27.9,00.0,37.9,31.0,14.0,0000.0,0005.39,0020.94,0003.27
2023-04-30 06:30:00,,0832.3,5.00,0.00,29.5,28.0,00.0,37.9,31.0,14.1,0000.0,0005.34,0020.72,0003.26
2023-04-30 06:31:00,,0832.3,5.01,0.00,29.5,28.0,00.0,37.9,31.0,14.2,0000.0,0005.30,0020.50,0003.25
2023-04-30 06:32:00,,0832.4,5.00,0.00,29.5,28.0,00.0,37.9,31.0,14.4,0000.0,0005.30,0019.92,0003.25
2023-04-30 06:33:00,,0832.4,5.00,0.00,29.5,28.0,00.0,37.9,31.0,14.2,0000.0,0005.31,0019.38,0003.24
2023-04-30 06:34:00,,0832.4,4.99,0.00,29.5,28.0,00.0,37.9,31.0,14.3,0000.0,0005.25,0018.53,0003.23
2023-04-30 06:35:00,,0832.4,5.00,0.00,29.5,27.9,00.0,37.9,31.0,13.9,0000.0,0005.21,0017.55,0003.23
2023-04-30 06:36:00,,0832.4,5.00,0.00,29.5,27.9,00.0,37.9,31.0,13.7,0000.0,0005.14,0017.85,0003.21
2023-04-30 06:37:00,,0832.5,4.99,0.00,29.5,27.9,00.0,37.9,31.0,14.2,0000.0,0005.03,0017.19,0003.20
2023-04-30 06:38:00,,0832.4,5.00,0.00,29.5,27.8,00.0,37.9,30.9,14.1,0000.0,0005.01,0017.11,0003.20
2023-04-30 06:39:00,,0832.5,5.01,0.00,29.4,27.7,00.0,37.9,30.9,14.0,0000.0,0005.00,0016.73,0003.20
2023-04-30 06:40:00,,0832.5,5.01,0.00,29.4,27.7,00.0,37.8,30.9,14.2,0000.0,0004.99,0016.02,0003.20
2023-04-30 06:41:00,,0832.5,5.00,0.00,29.4,27.7,00.0,37.8,30.9,14.2,0000.0,0005.05,0016.54,0003.20
2023-04-30 06:42:00,,0832.5,5.00,0.00,29.4,27.7,00.0,37.8,30.9,14.3,0000.0,0005.03,0017.09,0003.20
2023-04-30 06:43:00,,0832.5,4.99,0.00,29.4,27.7,00.0,37.8,30.9,14.3,0000.0,0005.01,0016.68,0003.18
2023-04-30 06:44:00,,0832.5,5.00,0.00,29.4,27.7,00.0,37.8,30.9,14.2,0000.0,0005.01,0016.67,0003.19
2023-04-30 06:45:00,,0832.5,5.00,0.00,29.3,27.6,00.0,37.8,30.8,14.4,0000.0,0005.06,0017.67,0003.19
2023-04-30 06:46:00,,0832.5,5.01,0.00,29.3,27.6,00.0,37.8,30.8,14.3,0000.0,0005.13,0018.41,0003.18
2023-04-30 06:47:00,,0832.5,4.99,0.00,29.3,27.5,00.0,37.8,30.7,13.9,0000.0,0005.21,0017.15,0003.18
2023-04-30 06:48:00,,0832.5,4.99,0.00,29.3,27.5,00.0,37.8,30.7,14.1,0000.0,0005.20,0016.16,0003.17
2023-04-30 06:49:00,,0832.5,5.02,0.00,29.2,27.4,00.0,37.8,30.7,14.2,0000.0,0005.15,0015.96,0003.16
2023-04-30 06:50:00,,0832.5,5.01,0.00,29.2,27.4,00.0,37.7,30.6,14.4,0000.0,0005.12,0016.09,0003.15
2023-04-30 06:51:00,,0832.4,5.01,0.00,29.2,27.3,00.0,37.7,30.6,14.4,0000.0,0005.12,0015.85,0003.13
2023-04-30 06:52:00,,0832.4,5.00,0.00,29.1,27.3,00.0,37.7,30.6,14.1,0000.0,0005.02,0016.09,0003.10
2023-04-30 06:53:00,,0832.5,4.99,0.00,29.1,27.3,00.0,37.7,30.6,13.8,0000.0,0004.97,0016.68,0003.06
2023-04-30 06:54:00,,0832.5,4.99,0.00,29.1,27.3,00.0,37.7,30.6,14.0,0000.0,0004.99,0016.36,0003.02
2023-04-30 06:55:00,,0832.5,4.99,0.00,29.1,27.3,00.0,37.6,30.6,14.1,0000.0,0005.01,0016.59,0002.99
2023-04-30 06:56:00,,0832.5,5.00,0.00,29.1,27.3,00.0,37.6,30.6,14.1,0000.0,0005.01,0016.09,0002.94
2023-04-30 06:57:00,,0832.6,5.00,0.00,29.1,27.3,00.0,37.6,30.6,14.2,0000.0,0004.97,0015.26,0002.90
2023-04-30 06:58:00,,0832.6,5.01,0.00,29.1,27.3,00.0,37.6,30.6,14.1,0000.0,0004.93,0015.91,0002.89
2023-04-30 06:59:00,,0832.5,5.01,0.00,29.1,27.3,00.0,37.6,30.6,14.0,0000.0,0004.96,0016.89,0002.86
